This is the latest recevied weather packets stored in our database for station/object XQ6AK-15. If no packets are shown the sender has not sent any weather packets the latest 10 day(s).
| Time | Temp. | Humidity | Pressure | Rain* | Wind** | Luminosity | Snow |
|---|---|---|---|---|---|---|---|
| 1787950001 | 8.89° C | 99% | 1006.5 hPa | 3.05 mm | - | 7 W/m² | - |
| 1787949696 | 8.89° C | 99% | 1006.2 hPa | 1.27 mm | - | 15 W/m² | - |
| 1787949395 | 8.89° C | 99% | 1006.1 hPa | 0 mm | - | 29 W/m² | - |
| 1787949090 | 8.89° C | 99% | 1006 hPa | 1.78 mm | - | 56 W/m² | - |
| 1787948787 | 8.89° C | 99% | 1006 hPa | 3.05 mm | - | 62 W/m² | - |
| 1787948486 | 8.89° C | 99% | 1006.1 hPa | 1.27 mm | - | 24 W/m² | - |
| 1787948182 | 8.89° C | 99% | 1006.2 hPa | 0 mm | - | 19 W/m² | - |
| 1787947880 | 8.89° C | 99% | 1006 hPa | 0 mm | - | 35 W/m² | - |
| 1787947575 | 8.89° C | 99% | 1006.2 hPa | 0 mm | - | 42 W/m² | - |
| 1787947268 | 8.89° C | 99% | 1006.1 hPa | 0 mm | - | 60 W/m² | - |
| 1787946963 | 8.89° C | 99% | 1005.9 hPa | 0 mm | - | 99 W/m² | - |
| 1787946661 | 8.89° C | 99% | 1006.1 hPa | 0 mm | - | 72 W/m² | - |
| 1787946356 | 8.89° C | 99% | 1006.1 hPa | 0 mm | - | 85 W/m² | - |
| 1787946055 | 8.89° C | 99% | 1006.1 hPa | 0 mm | - | 98 W/m² | - |
| 1787945750 | 8.89° C | 99% | 1006.1 hPa | 0 mm | - | 89 W/m² | - |
| 1787945446 | 8.89° C | 99% | 1006.3 hPa | 0 mm | - | 50 W/m² | - |
| 1787945142 | 8.89° C | 99% | 1006.3 hPa | 0 mm | - | 118 W/m² | - |
| 1787944839 | 8.89° C | 99% | 1006.4 hPa | 0 mm | - | 183 W/m² | - |
| 1787944534 | 8.89° C | 99% | 1006.3 hPa | 0 mm | - | 275 W/m² | - |
| 1787944230 | 8.89° C | 99% | 1006.5 hPa | 0 mm | - | 174 W/m² | - |
| 1787943929 | 8.89° C | 99% | 1006.4 hPa | 0 mm | - | 173 W/m² | - |
| 1787943625 | 8.89° C | 99% | 1006.6 hPa | 0 mm | - | 204 W/m² | - |
| 1787943324 | 8.89° C | 99% | 1006.6 hPa | 0 mm | - | 127 W/m² | - |
| 1787943020 | 8.33° C | 99% | 1006.5 hPa | 0 mm | - | 145 W/m² | - |
| 1787942715 | 8.33° C | 99% | 1006.7 hPa | 0 mm | - | 139 W/m² | - |
* Rain latest hour (hover to see other rain measurements)
** Current wind speed in m/s (hover to see current wind gust speed)